Regional Weather Roundup
Issued by NWS

Home | Current Version | Previous Version | Graphics & Text | Print | Product List | Glossary On
Versions: 1 2 3 4 5 6 7 8 9 10 11 12 13 14 15 16 17 18 19 20 21 22 23 24 25 26 27 28 29 30 31 32 33 34 35 36 37 38 39 40 41 42 43 44 45 46 47 48 49 50
000
ASUS43 KIND 221409
RWRIN

WEATHER ROUNDUP FOR INDIANA
NATIONAL WEATHER SERVICE INDIANAPOLIS IN
1000 AM EDT WED OCT 22 2014

NOTE: "FAIR" INDICATES FEW OR NO CLOUDS BELOW 12,000 FEET WITH NO
SIGNIFICANT WEATHER AND/OR OBSTRUCTIONS TO VISIBILITY.

* - STATION DOES NOT REPORT WEATHER SUCH AS PRECIPITATION OR FOG.

+ - STATION NOT QUALITY CONTROLLED BY THE NATIONAL WEATHER SERVICE.
    USE DATA WITH CAUTION...ESPECIALLY DEWPOINT AND RELATIVE
    HUMIDITY OBSERVATIONS.

INZ001>003-010>013-019-020-221500-
NORTHWEST INDIANA

CITY           SKY/WX    TMP DP  RH WIND       PRES   REMARKS
GARY /AIRPORT/ SUNNY     43  37  81 SE3       30.37R
KNOX *+        SUNNY     37  36  94 E5        30.35R
LA PORTE +     SUNNY     43  39  88 E7        30.36R FOG
MICHIGAN CITY+ SUNNY     41  37  87 E3        30.37R
MONTICELLO +   SUNNY     41  37  85 NE3       30.34R
RENSSELAER +   SUNNY     43  41  93 E7        30.36R
VALPARAISO     SUNNY     42  38  85 E6        30.36R

$$

LMZ046-743>745-221500-
SOUTHERN LAKE MICHIGAN

STATION/POSITION TIME  TEMP WIND        PRES
                       AIR  DIR/SP/G
                 (UTC) (F)  (DEG/KT/KT) (MB)
MICHIGAN CITY    1400   41   90/  8/ 11   N/A

$$

INZ004-005-014>016-021>024-221500-
NORTH CENTRAL INDIANA

CITY           SKY/WX    TMP DP  RH WIND       PRES   REMARKS
ELKHART        MOSUNNY   39  36  87 N3        30.36R
GOSHEN         SUNNY     40  36  86 N5        30.35R
LOGANSPORT +   SUNNY     41  34  75 NE5       30.35R
PERU/GRISSOM   SUNNY     41  41 100 NE7       30.33R
ROCHESTER +    SUNNY     43  39  87 E7        30.34S
SOUTH BEND     SUNNY     42  36  79 VRB5      30.36R
WARSAW +       SUNNY     41  37  87 NE3       30.34R

$$

INZ006>009-017-018-025>027-221500-
NORTHEAST INDIANA

CITY           SKY/WX    TMP DP  RH WIND       PRES   REMARKS
ANGOLA *+      CLOUDY    41  30  65 NE6       30.33R
AUBURN +       MOSUNNY   43  36  75 N9        30.33S
FORT WAYNE     MOSUNNY   45  39  79 N6        30.34R
HUNTINGTON +   SUNNY     43  38  83 NE6       30.33R

$$

INZ028-029-035-036-043>045-051>053-221500-
WEST CENTRAL INDIANA

CITY           SKY/WX    TMP DP  RH WIND       PRES   REMARKS
GREENCASTLE +  SUNNY     43  37  81 NE7       30.33R
LAFAYETTE      SUNNY     42  37  82 E7        30.34R
TERRE HAUTE    SUNNY     45  39  79 NE5       30.34R

$$

INZ030>032-037>040-046>048-054>057-064-065-221500-
CENTRAL INDIANA

CITY           SKY/WX    TMP DP  RH WIND       PRES   REMARKS
ANDERSON       CLOUDY    41  37  87 NE12      30.33R
CP ATTERBURY + SUNNY     45  37  76 NE3       30.32S
COLUMBUS       SUNNY     46  41  81 MISG      30.31S
FRANKFORT +    SUNNY     42  42 100 N5        30.34R
GREENWOOD *+   SUNNY     45  36  70 NE8       30.32
INDIANAPOLIS   MOSUNNY   44  37  76 NE8       30.31R
-EAGLE CREEK   SUNNY     45  37  73 NE8       30.31R
KOKOMO *+      SUNNY     43  36  75 NE8       30.34S
MARION +       CLOUDY    40  36  86 NE3       30.33S
MT COMFORT *+  PTSUNNY   43  37  81 NE9       30.32S
SHELBYVILLE    CLOUDY    47  39  74 N6        30.31R
ZIONSVILLE +   SUNNY     44  37  78 NE6       30.32S

$$

INZ033-034-041-042-049-050-058-059-221500-
EAST CENTRAL INDIANA

CITY           SKY/WX    TMP DP  RH WIND       PRES   REMARKS
MUNCIE         CLOUDY    44  38  79 NE7       30.32R

$$

INZ060-061-067>069-081>083-085>088-221500-
SOUTHWEST INDIANA

CITY           SKY/WX    TMP DP  RH WIND       PRES   REMARKS
EVANSVILLE     SUNNY     48  42  80 NE6       30.32R
HUNTINGBURG *+ SUNNY     45  39  81 NE6       30.32R
WASHINGTON +   SUNNY     45  41  85 E8        30.32R

$$

INZ062-063-066-070>080-084-089>092-221500-
SOUTH CENTRAL AND SOUTHEAST INDIANA

CITY           SKY/WX    TMP DP  RH WIND       PRES   REMARKS
BLOOMINGTON    SUNNY     45  39  79 NE7       30.31R
SEYMOUR +      SUNNY     48  39  71 NE8       30.31R

$$




USA.gov is the U.S. government's official web portal to all federal, state and local government web resources and services.